Location: Ash Swamp
(41.5170°N, 74.6157°W)
Time: 16:40:12
(UTC+00:00)

SL-16 R/B - Pass Details

Date: 14 July 2020
Orbit: 842 x 846 km, 71.0° (Epoch: 05 August)

Event Time Altitude Azimuth Distance (km) Brightness Sun altitude
Rises 08:53:06 0° 335° (NNW) 3,414 5.5 -7.7°
Reaches altitude 10° 08:55:33 10° 334° (NNW) 2,475 4.8 -7.3°
Maximum altitude 09:01:15 83° 249° (WSW) 857 2.2 -6.5°
Drops below altitude 10° 09:06:54 10° 161° (SSE) 2,458 4.5 -5.6°
Sets 09:09:20 0° 161° (SSE) 3,389 5.2 -5.2°
